FW5380 Weather Reports


Display with metric or nautical units.
time (UTC)temp
F
wind
direction
speed
MPH
gust
MPH
rain 1hr
in
rain 24hr
in
rain mn
in
humidity
%
barometer
mb
20260831224532 82 20 4.0 8.0 0.00 0.00 0.00 28 1012.7
20260831223108 82 26 5.0 11.0 0.00 0.00 0.00 29 1012.9
20260831221607 82 10 5.0 11.0 0.00 0.00 0.00 29 1013.0
20260831220054 81 6 4.0 11.0 0.00 0.00 0.00 30 1013.3
20260831214530 80 1 3.0 10.0 0.00 0.00 0.00 31 1013.6
20260831213033 79 41 3.0 8.0 0.00 0.00 0.00 32 1013.8
20260831210029 79 2 4.0 11.0 0.00 0.00 0.00 33 1014.2
20260831200030 77 38 4.0 9.0 0.00 0.00 0.00 37 1015.2
20260831193031 75 15 5.0 13.0 0.00 0.00 0.00 40 1015.7
20260831191530 74 44 4.0 10.0 0.00 0.00 0.00 41 1016.0
20260831190029 72 35 4.0 10.0 0.00 0.00 0.00 43 1016.3
20260831184531 71 31 4.0 13.0 0.00 0.00 0.00 46 1016.6
20260831183032 71 27 3.0 10.0 0.00 0.00 0.00 48 1016.9
20260831181532 70 340 2.0 7.0 0.00 0.00 0.00 49 1017.1
20260831174532 70 23 2.0 8.0 0.00 0.00 0.00 51 1017.5
20260831173032 68 357 2.0 6.0 0.00 0.00 0.00 53 1017.6
20260831170144 66 30 2.0 5.0 0.00 0.00 0.00 57 1017.7
20260831164530 66 7 1.0 5.0 0.00 0.00 0.00 62 1017.8
20260831163029 64 7 0.0 4.0 0.00 0.00 0.00 69 1018.0
20260831160031 57 45 0.0 0.0 0.00 0.00 0.00 84 1018.2
20260831154531 53 45 0.0 0.0 0.00 0.00 0.00 89 1018.2
20260831153032 50 45 0.0 0.0 0.00 0.00 0.00 91 1018.4
20260831151530 48 45 0.0 0.0 0.00 0.00 0.00 91 1018.4
20260831150030 47 45 0.0 0.0 0.00 0.00 0.00 91 1018.2
20260831143028 45 67 0.0 0.0 0.00 0.00 0.00 90 1017.9
20260831141532 44 67 0.0 0.0 0.00 0.00 0.00 89 1017.8
20260831140032 44 67 0.0 0.0 0.00 0.00 0.00 89 1017.7
20260831134645 45 67 0.0 0.0 0.00 0.00 0.00 88 1017.8
20260831133032 45 67 0.0 0.0 0.00 0.00 0.00 88 1017.7
20260831130106 45 180 0.0 0.0 0.00 0.00 0.00 86 1017.7
20260831124531 46 180 0.0 3.0 0.00 0.00 0.00 86 1017.7
20260831123031 46 183 0.0 0.0 0.00 0.00 0.00 86 1017.7
20260831121533 46 181 1.0 5.0 0.00 0.00 0.00 86 1017.7
20260831114531 46 179 2.0 4.0 0.00 0.00 0.00 85 1017.7
20260831113030 46 171 2.0 4.0 0.00 0.00 0.00 83 1017.9
20260831111530 46 180 0.0 1.0 0.00 0.00 0.00 82 1017.7
20260831110031 47 180 0.0 0.0 0.00 0.00 0.00 81 1017.7
20260831104530 48 181 0.0 2.0 0.00 0.00 0.00 79 1017.7
20260831103028 49 171 0.0 2.0 0.00 0.00 0.00 77 1017.7
20260831101528 50 162 0.0 4.0 0.00 0.00 0.00 76 1017.9
20260831100028 50 289 0.0 4.0 0.00 0.00 0.00 74 1018.0
20260831094531 51 179 0.0 4.0 0.00 0.00 0.00 73 1018.2
20260831093026 51 183 2.0 7.0 0.00 0.00 0.00 73 1018.3
20260831091533 52 179 1.0 6.0 0.00 0.00 0.00 70 1018.4
20260831084528 53 186 3.0 6.0 0.00 0.00 0.00 71 1018.6
20260831083033 53 168 2.0 6.0 0.00 0.00 0.00 70 1018.6
20260831081531 53 185 2.0 7.0 0.00 0.00 0.00 70 1018.6
20260831080029 53 183 3.0 6.0 0.00 0.00 0.00 72 1018.6
20260831074601 53 170 3.0 5.0 0.00 0.00 0.00 74 1018.6
20260831071530 51 191 1.0 5.0 0.00 0.00 0.00 76 1018.7
20260831070030 51 185 2.0 4.0 0.00 0.00 0.00 76 1018.8
20260831064609 51 185 2.0 5.0 0.00 0.00 0.00 76 1018.9
20260831063031 51 180 1.0 3.0 0.00 0.00 0.00 76 1019.0
20260831061532 52 180 0.0 1.0 0.00 0.00 0.00 76 1019.0
20260831060032 52 180 2.0 3.0 0.00 0.00 0.00 76 1019.0
20260831054647 52 164 2.0 3.0 0.00 0.00 0.00 77 1019.1
20260831053029 52 185 2.0 3.0 0.00 0.00 0.00 76 1019.1
20260831051529 52 202 1.0 3.0 0.00 0.00 0.00 74 1019.2
20260831044529 54 181 3.0 4.0 0.00 0.00 0.00 72 1019.2
20260831040031 56 177 2.0 4.0 0.00 0.00 0.00 67 1019.1
20260831034529 58 138 1.0 5.0 0.00 0.00 0.00 63 1019.0
20260831033107 59 332 0.0 4.0 0.00 0.00 0.00 60 1018.8
20260831031531 61 315 0.0 1.0 0.00 0.00 0.00 54 1018.8
20260831030029 63 313 0.0 5.0 0.00 0.00 0.00 51 1018.7
20260831024602 66 300 0.0 2.0 0.00 0.00 0.00 47 1018.6
20260831023031 68 331 1.0 6.0 0.00 0.00 0.00 43 1018.5
20260831021608 69 323 3.0 8.0 0.00 0.00 0.00 41 1018.5
20260831020033 70 322 3.0 7.0 0.00 0.00 0.00 40 1018.6
20260831013029 72 328 6.0 11.0 0.00 0.00 0.00 37 1018.5
20260831011530 73 327 6.0 12.0 0.00 0.00 0.00 36 1018.5
20260831010030 74 329 5.0 12.0 0.00 0.00 0.00 35 1018.6
20260831004530 76 331 6.0 11.0 0.00 0.00 0.00 35 1018.7
20260831003030 76 333 4.0 12.0 0.00 0.00 0.00 36 1018.7
20260831001529 76 319 4.0 8.0 0.00 0.00 0.00 37 1018.8
20260830234531 75 341 3.0 8.0 0.00 0.00 0.00 38 1019.0
20260830233104 75 320 4.0 9.0 0.00 0.00 0.00 38 1019.1
20260830230029 74 327 4.0 9.0 0.00 0.00 0.00 40 1019.4